Location: ?????????
(38.5999°N, 22.7695°E)
Time: 09:01:52
(UTC+00:00)

Cosmos 2219 Rocket - Pass Details

Date: 23 May 2024
Orbit: 826 x 847 km, 71.0° (Epoch: 23 June)

Event Time Altitude Azimuth Distance (km) Brightness Sun altitude
Rises 01:52:48 0° 336° (NNW) 3,398 5.6 -13.4°
Reaches altitude 10° 01:55:14 10° 336° (NNW) 2,463 4.8 -13.1°
Maximum altitude 02:00:54 85° 249° (WSW) 851 2.2 -12.2°
Drops below altitude 10° 02:06:34 10° 161° (SSE) 2,458 4.4 -11.4°
Sets 02:09:00 0° 161° (SSE) 3,390 5.1 -11.0°
